Time,TemperatureF,DewpointF,PressureIn,WindDirection,WindDirectionDegrees,WindSpeedMPH,WindSpeedGustMPH,Humidity,HourlyPrecipIn,Conditions,Clouds,dailyrainin,SoftwareType,DateUTC
2013-07-07 00:00:00,73.3,66.0,29.84,SSE,156,3.0,3.0,78,0.00,,,0.00,Wunderground v.1.15,2013-07-07 05:00:00,
2013-07-07 00:06:00,73.2,65.9,29.85,SSE,167,3.0,5.0,78,0.00,,,0.00,Wunderground v.1.15,2013-07-07 05:06:00,
2013-07-07 00:12:00,73.1,65.8,29.85,South,179,3.0,3.0,78,0.00,,,0.00,Wunderground v.1.15,2013-07-07 05:12:00,
2013-07-07 00:17:00,73.1,65.8,29.85,South,180,2.0,3.0,78,0.00,,,0.00,Wunderground v.1.15,2013-07-07 05:17:00,
2013-07-07 00:23:00,73.0,65.7,29.84,South,178,3.0,3.0,78,0.00,,,0.00,Wunderground v.1.15,2013-07-07 05:23:00,
2013-07-07 00:29:00,72.9,65.6,29.84,South,189,3.0,5.0,78,0.00,,,0.00,Wunderground v.1.15,2013-07-07 05:29:00,
2013-07-07 00:35:00,72.9,65.3,29.85,South,182,3.0,4.0,77,0.00,,,0.00,Wunderground v.1.15,2013-07-07 05:35:00,
2013-07-07 00:41:00,73.0,65.0,29.84,South,173,5.0,8.0,76,0.00,,,0.00,weatherlink.com 1.10,2013-07-07 05:41:00,
2013-07-07 00:47:00,73.3,64.9,29.84,South,190,5.0,7.0,75,0.00,,,0.00,Wunderground v.1.15,2013-07-07 05:47:00,
2013-07-07 00:53:00,73.6,64.4,29.84,South,177,5.0,6.0,73,0.00,,,0.00,Wunderground v.1.15,2013-07-07 05:53:00,
2013-07-07 00:59:00,73.8,64.2,29.84,South,184,5.0,7.0,72,0.00,,,0.00,Wunderground v.1.15,2013-07-07 05:59:00,
2013-07-07 01:05:00,74.1,64.1,29.84,South,182,5.0,8.0,71,0.00,,,0.00,Wunderground v.1.15,2013-07-07 06:05:00,
2013-07-07 01:10:00,74.3,63.9,29.84,SSW,206,6.0,8.0,70,0.00,,,0.00,Wunderground v.1.15,2013-07-07 06:10:00,
2013-07-07 01:16:00,74.5,63.7,29.83,SSW,207,6.0,9.0,69,0.00,,,0.00,Wunderground v.1.15,2013-07-07 06:16:00,
2013-07-07 01:22:00,74.6,63.8,29.84,South,176,6.0,8.0,69,0.00,,,0.00,Wunderground v.1.15,2013-07-07 06:22:00,
2013-07-07 01:28:00,74.6,63.8,29.84,SSW,198,5.0,8.0,69,0.00,,,0.00,Wunderground v.1.15,2013-07-07 06:28:00,
2013-07-07 01:34:00,74.5,63.7,29.84,South,185,5.0,6.0,69,0.00,,,0.00,Wunderground v.1.15,2013-07-07 06:34:00,
2013-07-07 01:40:00,74.3,64.0,29.83,SSE,165,4.0,9.0,70,0.00,,,0.00,weatherlink.com 1.10,2013-07-07 06:40:00,
2013-07-07 01:46:00,74.1,63.7,29.83,South,180,5.0,6.0,70,0.00,,,0.00,Wunderground v.1.15,2013-07-07 06:46:00,
2013-07-07 01:52:00,74.1,63.7,29.83,SSW,200,5.0,7.0,70,0.00,,,0.00,Wunderground v.1.15,2013-07-07 06:52:00,
2013-07-07 01:59:00,74.0,63.6,29.83,South,190,5.0,7.0,70,0.00,,,0.00,Wunderground v.1.15,2013-07-07 06:59:00,
2013-07-07 02:05:00,74.0,63.6,29.83,South,177,5.0,6.0,70,0.00,,,0.00,Wunderground v.1.15,2013-07-07 07:05:00,
2013-07-07 02:10:00,73.9,64.0,29.83,South,183,3.0,8.0,70,0.00,,,0.00,weatherlink.com 1.10,2013-07-07 07:10:00,
2013-07-07 02:16:00,73.9,63.5,29.83,SSE,150,5.0,7.0,70,0.00,,,0.00,Wunderground v.1.15,2013-07-07 07:16:00,
2013-07-07 02:21:00,74.0,63.6,29.83,South,173,6.0,7.0,70,0.00,,,0.00,Wunderground v.1.15,2013-07-07 07:21:00,
2013-07-07 02:26:00,74.2,63.0,29.83,SSW,198,11.0,12.0,69,0.00,,,0.00,weatherlink.com 1.10,2013-07-07 07:26:00,
2013-07-07 02:32:00,74.3,63.5,29.83,South,174,7.0,7.0,69,0.00,,,0.00,Wunderground v.1.15,2013-07-07 07:32:00,
2013-07-07 02:37:00,74.3,63.5,29.83,South,182,6.0,10.0,69,0.00,,,0.00,Wunderground v.1.15,2013-07-07 07:37:00,
2013-07-07 02:43:00,74.3,63.5,29.83,South,184,7.0,14.0,69,0.00,,,0.00,Wunderground v.1.15,2013-07-07 07:43:00,
2013-07-07 02:49:00,74.3,63.5,29.83,SSW,193,6.0,14.0,69,0.00,,,0.00,Wunderground v.1.15,2013-07-07 07:49:00,
2013-07-07 02:55:00,74.3,63.0,29.83,SSE,159,5.0,11.0,69,0.00,,,0.00,weatherlink.com 1.10,2013-07-07 07:55:00,
2013-07-07 03:00:00,74.2,63.4,29.83,South,169,6.0,7.0,69,0.00,,,0.00,Wunderground v.1.15,2013-07-07 08:00:00,
2013-07-07 03:06:00,74.2,63.4,29.83,South,171,6.0,7.0,69,0.00,,,0.00,Wunderground v.1.15,2013-07-07 08:06:00,
2013-07-07 03:11:00,74.1,63.3,29.83,SSW,204,6.0,7.0,69,0.00,,,0.00,Wunderground v.1.15,2013-07-07 08:11:00,
2013-07-07 03:17:00,74.1,63.3,29.83,SSW,209,6.0,8.0,69,0.00,,,0.00,Wunderground v.1.15,2013-07-07 08:17:00,
2013-07-07 03:22:00,74.0,63.2,29.83,South,175,6.0,6.0,69,0.00,,,0.00,Wunderground v.1.15,2013-07-07 08:22:00,
2013-07-07 03:27:00,74.0,62.8,29.83,SSW,192,5.0,10.0,68,0.00,,,0.00,Wunderground v.1.15,2013-07-07 08:27:00,
2013-07-07 03:32:00,73.8,63.0,29.83,South,181,6.0,10.0,69,0.00,,,0.00,Wunderground v.1.15,2013-07-07 08:32:00,
2013-07-07 03:38:00,73.8,63.0,29.83,South,182,6.0,10.0,69,0.00,,,0.00,Wunderground v.1.15,2013-07-07 08:38:00,
2013-07-07 03:43:00,73.6,62.8,29.83,South,182,6.0,9.0,69,0.00,,,0.00,Wunderground v.1.15,2013-07-07 08:43:00,
2013-07-07 03:49:00,73.5,62.7,29.83,South,178,6.0,9.0,69,0.00,,,0.00,Wunderground v.1.15,2013-07-07 08:49:00,
2013-07-07 03:55:00,73.3,62.5,29.83,SSE,159,6.0,8.0,69,0.00,,,0.00,Wunderground v.1.15,2013-07-07 08:55:00,
2013-07-07 04:00:00,73.2,62.8,29.83,SSE,166,6.0,7.0,70,0.00,,,0.00,Wunderground v.1.15,2013-07-07 09:00:00,
2013-07-07 04:06:00,73.1,62.7,29.83,South,178,6.0,11.0,70,0.00,,,0.00,Wunderground v.1.15,2013-07-07 09:06:00,
2013-07-07 04:11:00,73.0,63.0,29.82,SSW,193,8.0,13.0,70,0.00,,,0.00,weatherlink.com 1.10,2013-07-07 09:11:00,
2013-07-07 04:17:00,73.1,62.7,29.82,South,181,8.0,9.0,70,0.00,,,0.00,Wunderground v.1.15,2013-07-07 09:17:00,
2013-07-07 04:22:00,73.0,62.6,29.82,SSW,200,7.0,8.0,70,0.00,,,0.00,Wunderground v.1.15,2013-07-07 09:22:00,
2013-07-07 04:29:00,72.9,62.5,29.82,South,171,7.0,9.0,70,0.00,,,0.00,Wunderground v.1.15,2013-07-07 09:29:00,
2013-07-07 04:35:00,72.7,62.3,29.82,South,178,7.0,10.0,70,0.00,,,0.00,Wunderground v.1.15,2013-07-07 09:35:00,
2013-07-07 04:40:00,72.7,62.3,29.82,South,182,7.0,7.0,70,0.00,,,0.00,Wunderground v.1.15,2013-07-07 09:40:00,
2013-07-07 04:46:00,72.6,62.3,29.82,SSW,195,7.0,9.0,70,0.00,,,0.00,Wunderground v.1.15,2013-07-07 09:46:00,
2013-07-07 04:52:00,72.7,62.3,29.82,South,184,7.0,8.0,70,0.00,,,0.00,Wunderground v.1.15,2013-07-07 09:52:00,
2013-07-07 04:58:00,72.7,62.3,29.82,SW,219,7.0,10.0,70,0.00,,,0.00,Wunderground v.1.15,2013-07-07 09:58:00,
2013-07-07 05:03:00,72.7,62.3,29.82,SSW,197,7.0,7.0,70,0.00,,,0.00,Wunderground v.1.15,2013-07-07 10:03:00,
2013-07-07 05:09:00,72.6,62.7,29.82,South,189,6.0,9.0,71,0.00,,,0.00,Wunderground v.1.15,2013-07-07 10:09:00,
2013-07-07 05:16:00,72.6,62.7,29.82,SW,219,6.0,12.0,71,0.00,,,0.00,Wunderground v.1.15,2013-07-07 10:16:00,
2013-07-07 05:22:00,72.7,62.8,29.82,SSW,195,7.0,9.0,71,0.00,,,0.00,Wunderground v.1.15,2013-07-07 10:22:00,
2013-07-07 05:28:00,72.7,63.0,29.82,South,191,8.0,12.0,71,0.00,,,0.00,weatherlink.com 1.10,2013-07-07 10:28:00,
2013-07-07 05:34:00,72.7,62.8,29.82,South,183,7.0,8.0,71,0.00,,,0.00,Wunderground v.1.15,2013-07-07 10:34:00,
2013-07-07 05:40:00,72.7,62.8,29.82,SW,217,6.0,12.0,71,0.00,,,0.00,Wunderground v.1.15,2013-07-07 10:40:00,
2013-07-07 05:46:00,72.8,62.8,29.82,SSW,204,7.0,12.0,71,0.00,,,0.00,Wunderground v.1.15,2013-07-07 10:46:00,
2013-07-07 05:52:00,72.9,62.9,29.82,SW,214,7.0,8.0,71,0.00,,,0.00,Wunderground v.1.15,2013-07-07 10:52:00,
2013-07-07 05:59:00,73.0,63.0,29.82,SSW,200,7.0,9.0,71,0.00,,,0.00,Wunderground v.1.15,2013-07-07 10:59:00,
2013-07-07 06:04:00,73.1,63.1,29.82,SW,215,8.0,13.0,71,0.00,,,0.00,Wunderground v.1.15,2013-07-07 11:04:00,
2013-07-07 06:10:00,73.3,63.3,29.82,SSW,197,9.0,9.0,71,0.00,,,0.00,Wunderground v.1.15,2013-07-07 11:10:00,
2013-07-07 06:16:00,73.2,63.6,29.82,SSW,201,8.0,11.0,72,0.00,,,0.00,Wunderground v.1.15,2013-07-07 11:16:00,
2013-07-07 06:22:00,73.2,63.6,29.82,SSW,210,7.0,9.0,72,0.00,,,0.00,Wunderground v.1.15,2013-07-07 11:22:00,
2013-07-07 06:27:00,73.3,64.0,29.83,SSW,196,8.0,13.0,72,0.00,,,0.00,weatherlink.com 1.10,2013-07-07 11:27:00,
2013-07-07 06:33:00,73.4,63.8,29.83,SW,224,8.0,13.0,72,0.00,,,0.00,Wunderground v.1.15,2013-07-07 11:33:00,
2013-07-07 06:39:00,73.5,63.9,29.83,SSW,206,9.0,14.0,72,0.00,,,0.00,Wunderground v.1.15,2013-07-07 11:39:00,
2013-07-07 06:45:00,73.7,63.7,29.83,SSW,196,9.0,13.0,71,0.00,,,0.00,Wunderground v.1.15,2013-07-07 11:45:00,
2013-07-07 06:51:00,73.7,64.1,29.83,SSW,199,7.0,8.0,72,0.00,,,0.00,Wunderground v.1.15,2013-07-07 11:51:00,
2013-07-07 06:57:00,73.6,64.0,29.83,SSW,200,19.0,19.0,72,0.00,,,0.00,weatherlink.com 1.10,2013-07-07 11:57:00,
2013-07-07 07:02:00,73.6,64.4,29.82,SSW,202,7.0,9.0,73,0.00,,,0.00,Wunderground v.1.15,2013-07-07 12:02:00,
2013-07-07 07:08:00,73.8,64.2,29.83,SSW,205,8.0,11.0,72,0.00,,,0.00,Wunderground v.1.15,2013-07-07 12:08:00,
2013-07-07 07:13:00,74.0,64.0,29.83,SSW,211,7.0,13.0,72,0.00,,,0.00,weatherlink.com 1.10,2013-07-07 12:13:00,
2013-07-07 07:19:00,74.2,64.6,29.83,SSW,208,8.0,9.0,72,0.00,,,0.00,Wunderground v.1.15,2013-07-07 12:19:00,
2013-07-07 07:25:00,74.4,64.8,29.83,SSW,196,7.0,10.0,72,0.00,,,0.00,Wunderground v.1.15,2013-07-07 12:25:00,
2013-07-07 07:30:00,74.5,65.3,29.83,South,182,7.0,7.0,73,0.00,,,0.00,Wunderground v.1.15,2013-07-07 12:30:00,
2013-07-07 07:36:00,74.7,65.1,29.83,SSW,206,7.0,11.0,72,0.00,,,0.00,Wunderground v.1.15,2013-07-07 12:36:00,
2013-07-07 07:42:00,74.8,65.0,29.83,SSW,206,6.0,13.0,72,0.00,,,0.00,weatherlink.com 1.10,2013-07-07 12:42:00,
2013-07-07 07:47:00,75.0,65.4,29.83,South,182,8.0,11.0,72,0.00,,,0.00,Wunderground v.1.15,2013-07-07 12:47:00,
2013-07-07 07:53:00,75.2,65.6,29.83,SW,219,8.0,12.0,72,0.00,,,0.00,Wunderground v.1.15,2013-07-07 12:53:00,
2013-07-07 08:00:00,75.4,65.7,29.83,SSW,194,8.0,8.0,72,0.00,,,0.00,Wunderground v.1.15,2013-07-07 13:00:00,
2013-07-07 08:06:00,75.7,66.0,29.83,SSW,208,9.0,11.0,72,0.00,,,0.00,Wunderground v.1.15,2013-07-07 13:06:00,
2013-07-07 08:11:00,75.9,66.2,29.83,SW,219,9.0,12.0,72,0.00,,,0.00,Wunderground v.1.15,2013-07-07 13:11:00,
2013-07-07 08:17:00,76.1,66.4,29.83,SW,226,9.0,12.0,72,0.00,,,0.00,Wunderground v.1.15,2013-07-07 13:17:00,
2013-07-07 08:23:00,76.4,67.1,29.83,SSW,193,8.0,9.0,73,0.00,,,0.00,Wunderground v.1.15,2013-07-07 13:23:00,
2013-07-07 08:29:00,76.6,66.9,29.83,SSW,207,8.0,12.0,72,0.00,,,0.00,Wunderground v.1.15,2013-07-07 13:29:00,
2013-07-07 08:35:00,76.8,66.7,29.83,SW,234,9.0,11.0,71,0.00,,,0.00,Wunderground v.1.15,2013-07-07 13:35:00,
2013-07-07 08:41:00,77.1,67.0,29.84,SW,236,9.0,10.0,71,0.00,,,0.00,Wunderground v.1.15,2013-07-07 13:41:00,
2013-07-07 08:46:00,77.2,67.5,29.84,SSW,211,9.0,11.0,72,0.00,,,0.00,Wunderground v.1.15,2013-07-07 13:46:00,
2013-07-07 08:52:00,77.5,67.4,29.83,SW,223,9.0,17.0,71,0.00,,,0.00,Wunderground v.1.15,2013-07-07 13:52:00,
2013-07-07 08:58:00,77.7,68.0,29.83,SSW,205,10.0,17.0,72,0.00,,,0.00,Wunderground v.1.15,2013-07-07 13:58:00,
2013-07-07 09:03:00,78.0,67.8,29.83,SW,223,10.0,11.0,71,0.00,,,0.00,Wunderground v.1.15,2013-07-07 14:03:00,
2013-07-07 09:09:00,78.3,68.1,29.83,SW,225,10.0,15.0,71,0.00,,,0.00,Wunderground v.1.15,2013-07-07 14:09:00,
2013-07-07 09:15:00,78.7,68.5,29.83,SSW,202,10.0,10.0,71,0.00,,,0.00,Wunderground v.1.15,2013-07-07 14:15:00,
2013-07-07 09:21:00,78.8,68.6,29.83,SW,227,10.0,10.0,71,0.00,,,0.00,Wunderground v.1.15,2013-07-07 14:21:00,
2013-07-07 09:27:00,79.2,69.0,29.83,SSW,209,11.0,20.0,70,0.00,,,0.00,weatherlink.com 1.10,2013-07-07 14:27:00,
2013-07-07 09:33:00,79.4,68.3,29.83,SW,218,11.0,13.0,69,0.00,,,0.00,Wunderground v.1.15,2013-07-07 14:33:00,
2013-07-07 09:39:00,79.7,69.0,29.83,SW,235,11.0,13.0,70,0.00,,,0.00,Wunderground v.1.15,2013-07-07 14:39:00,
2013-07-07 09:44:00,79.9,68.8,29.83,SW,231,10.0,15.0,69,0.00,,,0.00,Wunderground v.1.15,2013-07-07 14:44:00,
2013-07-07 09:50:00,79.9,68.0,29.83,WSW,245,12.0,12.0,67,0.00,,,0.00,Wunderground v.1.15,2013-07-07 14:50:00,
2013-07-07 09:56:00,80.1,68.6,29.83,WSW,238,12.0,13.0,68,0.00,,,0.00,Wunderground v.1.15,2013-07-07 14:56:00,
2013-07-07 10:02:00,80.2,68.2,29.83,SW,234,13.0,13.0,67,0.00,,,0.00,Wunderground v.1.15,2013-07-07 15:02:00,
2013-07-07 10:07:00,80.3,68.8,29.83,SW,227,13.0,17.0,68,0.00,,,0.00,Wunderground v.1.15,2013-07-07 15:07:00,
2013-07-07 10:13:00,80.8,70.0,29.83,WSW,239,11.0,16.0,70,0.00,,,0.00,weatherlink.com 1.10,2013-07-07 15:13:00,
2013-07-07 10:18:00,81.1,70.0,29.83,SW,225,11.0,17.0,69,0.00,,,0.00,Wunderground v.1.15,2013-07-07 15:18:00,
2013-07-07 10:24:00,81.3,69.3,29.82,WSW,240,12.0,17.0,67,0.00,,,0.00,Wunderground v.1.15,2013-07-07 15:24:00,
2013-07-07 10:29:00,81.5,69.5,29.82,SSW,205,11.0,17.0,67,0.00,,,0.00,Wunderground v.1.15,2013-07-07 15:29:00,
2013-07-07 10:35:00,81.7,69.2,29.83,SW,220,11.0,17.0,66,0.00,,,0.00,Wunderground v.1.15,2013-07-07 15:35:00,
2013-07-07 10:41:00,81.8,69.8,29.83,West,259,11.0,17.0,67,0.00,,,0.00,Wunderground v.1.15,2013-07-07 15:41:00,
2013-07-07 10:47:00,81.8,70.2,29.83,SW,231,10.0,17.0,68,0.00,,,0.00,Wunderground v.1.15,2013-07-07 15:47:00,
2013-07-07 10:52:00,81.8,70.2,29.83,SW,219,9.0,17.0,68,0.00,,,0.00,Wunderground v.1.15,2013-07-07 15:52:00,
2013-07-07 10:58:00,81.8,70.0,29.83,WSW,237,13.0,17.0,67,0.00,,,0.00,weatherlink.com 1.10,2013-07-07 15:58:00,
2013-07-07 11:04:00,82.2,70.6,29.84,SW,228,11.0,17.0,68,0.00,,,0.00,Wunderground v.1.15,2013-07-07 16:04:00,
2013-07-07 11:10:00,82.2,70.1,29.83,SW,236,10.0,10.0,67,0.00,,,0.00,Wunderground v.1.15,2013-07-07 16:10:00,
2013-07-07 11:16:00,82.3,69.8,29.83,WSW,237,11.0,17.0,66,0.00,,,0.00,Wunderground v.1.15,2013-07-07 16:16:00,
2013-07-07 11:22:00,82.7,70.6,29.83,WSW,250,10.0,17.0,67,0.00,,,0.00,Wunderground v.1.15,2013-07-07 16:22:00,
2013-07-07 11:27:00,82.9,70.8,29.83,WSW,246,10.0,17.0,67,0.00,,,0.00,Wunderground v.1.15,2013-07-07 16:27:00,
2013-07-07 11:33:00,82.7,69.7,29.83,WSW,239,10.0,17.0,65,0.00,,,0.00,Wunderground v.1.15,2013-07-07 16:33:00,
2013-07-07 11:39:00,82.4,69.9,29.83,WSW,240,11.0,17.0,66,0.00,,,0.00,Wunderground v.1.15,2013-07-07 16:39:00,
2013-07-07 11:45:00,82.2,70.1,29.83,SW,227,11.0,17.0,67,0.00,,,0.00,Wunderground v.1.15,2013-07-07 16:45:00,
2013-07-07 11:50:00,82.3,69.8,29.83,West,275,11.0,11.0,66,0.00,,,0.00,Wunderground v.1.15,2013-07-07 16:50:00,
2013-07-07 11:56:00,82.5,70.4,29.83,WSW,249,10.0,17.0,67,0.00,,,0.00,Wunderground v.1.15,2013-07-07 16:56:00,
2013-07-07 12:01:00,82.5,70.0,29.83,WSW,243,9.0,17.0,66,0.00,,,0.00,Wunderground v.1.15,2013-07-07 17:01:00,
2013-07-07 12:07:00,82.9,69.9,29.83,WSW,252,9.0,17.0,65,0.00,,,0.00,Wunderground v.1.15,2013-07-07 17:07:00,
2013-07-07 12:13:00,83.3,71.0,29.83,SSW,205,12.0,17.0,66,0.00,,,0.00,weatherlink.com 1.10,2013-07-07 17:13:00,
2013-07-07 12:18:00,83.9,70.9,29.83,West,270,9.0,17.0,65,0.00,,,0.00,Wunderground v.1.15,2013-07-07 17:18:00,
2013-07-07 12:23:00,84.2,70.2,29.83,WSW,246,9.0,17.0,63,0.00,,,0.00,Wunderground v.1.15,2013-07-07 17:23:00,
2013-07-07 12:29:00,84.3,71.0,29.83,WSW,238,7.0,13.0,64,0.00,,,0.00,weatherlink.com 1.10,2013-07-07 17:29:00,
2013-07-07 12:35:00,84.8,71.3,29.83,SSW,201,7.0,17.0,64,0.00,,,0.00,Wunderground v.1.15,2013-07-07 17:35:00,
2013-07-07 12:41:00,85.2,71.2,29.83,SW,235,7.0,17.0,63,0.00,,,0.00,Wunderground v.1.15,2013-07-07 17:41:00,
2013-07-07 12:46:00,85.5,72.4,29.83,WSW,242,7.0,17.0,65,0.00,,,0.00,Wunderground v.1.15,2013-07-07 17:46:00,
2013-07-07 12:52:00,85.6,71.1,29.83,WSW,244,6.0,17.0,62,0.00,,,0.00,Wunderground v.1.15,2013-07-07 17:52:00,
2013-07-07 12:58:00,85.7,73.0,29.83,WSW,238,10.0,12.0,66,0.00,,,0.00,weatherlink.com 1.10,2013-07-07 17:58:00,
2013-07-07 13:03:00,85.9,72.3,29.83,WSW,239,7.0,9.0,64,0.00,,,0.00,Wunderground v.1.15,2013-07-07 18:03:00,
2013-07-07 13:09:00,85.9,71.4,29.83,SW,232,8.0,9.0,62,0.00,,,0.00,Wunderground v.1.15,2013-07-07 18:09:00,
2013-07-07 13:15:00,85.9,71.0,29.83,SSW,211,5.0,12.0,62,0.00,,,0.00,weatherlink.com 1.10,2013-07-07 18:15:00,
2013-07-07 13:21:00,86.2,72.6,29.84,West,267,7.0,7.0,64,0.00,,,0.00,Wunderground v.1.15,2013-07-07 18:21:00,
2013-07-07 13:26:00,86.6,73.0,29.84,WSW,240,6.0,8.0,64,0.00,,,0.00,Wunderground v.1.15,2013-07-07 18:26:00,
2013-07-07 13:32:00,86.9,74.2,29.84,WNW,296,6.0,6.0,66,0.00,,,0.00,Wunderground v.1.15,2013-07-07 18:32:00,
2013-07-07 13:37:00,87.1,73.4,29.84,WSW,243,6.0,8.0,64,0.00,,,0.00,Wunderground v.1.15,2013-07-07 18:37:00,
2013-07-07 13:43:00,87.2,72.6,29.83,SW,234,6.0,10.0,62,0.00,,,0.00,Wunderground v.1.15,2013-07-07 18:43:00,
2013-07-07 13:49:00,87.1,72.5,29.84,SW,235,7.0,10.0,62,0.00,,,0.00,Wunderground v.1.15,2013-07-07 18:49:00,
2013-07-07 13:56:00,87.2,72.6,29.83,WSW,257,6.0,9.0,62,0.00,,,0.00,Wunderground v.1.15,2013-07-07 18:56:00,
2013-07-07 14:02:00,87.6,72.0,29.83,SSW,213,5.0,13.0,60,0.00,,,0.00,Wunderground v.1.15,2013-07-07 19:02:00,
2013-07-07 14:08:00,87.9,73.3,29.83,SW,219,6.0,13.0,62,0.00,,,0.00,Wunderground v.1.15,2013-07-07 19:08:00,
2013-07-07 14:14:00,88.0,72.9,29.83,SE,145,5.0,13.0,61,0.00,,,0.00,Wunderground v.1.15,2013-07-07 19:14:00,
2013-07-07 14:19:00,87.8,73.2,29.83,SW,229,5.0,13.0,62,0.00,,,0.00,Wunderground v.1.15,2013-07-07 19:19:00,
2013-07-07 14:25:00,87.9,72.8,29.83,SW,214,5.0,13.0,61,0.00,,,0.00,Wunderground v.1.15,2013-07-07 19:25:00,
2013-07-07 14:31:00,88.0,72.9,29.84,West,281,4.0,13.0,61,0.00,,,0.00,Wunderground v.1.15,2013-07-07 19:31:00,
2013-07-07 14:37:00,88.5,73.8,29.84,South,176,3.0,13.0,62,0.00,,,0.00,Wunderground v.1.15,2013-07-07 19:37:00,
2013-07-07 14:42:00,88.6,73.4,29.84,SSW,212,4.0,13.0,61,0.00,,,0.00,Wunderground v.1.15,2013-07-07 19:42:00,
2013-07-07 14:48:00,88.5,72.8,29.84,WSW,238,6.0,13.0,60,0.00,,,0.00,Wunderground v.1.15,2013-07-07 19:48:00,
2013-07-07 14:54:00,88.8,73.6,29.84,WSW,238,4.0,13.0,61,0.00,,,0.00,Wunderground v.1.15,2013-07-07 19:54:00,
2013-07-07 15:00:00,89.0,72.0,29.84,WSW,252,5.0,11.0,58,0.00,,,0.00,weatherlink.com 1.10,2013-07-07 20:00:00,
2013-07-07 15:05:00,89.1,73.9,29.84,West,263,6.0,7.0,61,0.00,,,0.00,Wunderground v.1.15,2013-07-07 20:05:00,
2013-07-07 15:10:00,89.2,72.0,29.83,SW,232,5.0,5.0,57,0.00,,,0.00,Wunderground v.1.15,2013-07-07 20:10:00,
2013-07-07 15:16:00,89.3,73.6,29.84,SSW,211,5.0,7.0,60,0.00,,,0.00,Wunderground v.1.15,2013-07-07 20:16:00,
2013-07-07 15:22:00,89.6,74.4,29.84,WSW,248,4.0,4.0,61,0.00,,,0.00,Wunderground v.1.15,2013-07-07 20:22:00,
2013-07-07 15:28:00,90.0,73.7,29.83,SW,223,2.0,4.0,59,0.00,,,0.00,Wunderground v.1.15,2013-07-07 20:28:00,
2013-07-07 15:34:00,90.2,72.4,29.83,West,264,3.0,5.0,56,0.00,,,0.00,Wunderground v.1.15,2013-07-07 20:34:00,
2013-07-07 15:40:00,90.1,72.3,29.83,West,265,6.0,8.0,56,0.00,,,0.00,Wunderground v.1.15,2013-07-07 20:40:00,
2013-07-07 15:46:00,90.0,73.2,29.83,SW,225,7.0,8.0,58,0.00,,,0.00,Wunderground v.1.15,2013-07-07 20:46:00,
2013-07-07 15:51:00,90.2,72.4,29.83,West,279,6.0,8.0,56,0.00,,,0.00,Wunderground v.1.15,2013-07-07 20:51:00,
2013-07-07 15:57:00,90.5,74.2,29.83,West,272,5.0,8.0,59,0.00,,,0.00,Wunderground v.1.15,2013-07-07 20:57:00,
2013-07-07 16:02:00,90.5,72.1,29.83,West,264,5.0,7.0,55,0.00,,,0.00,Wunderground v.1.15,2013-07-07 21:02:00,
2013-07-07 16:08:00,90.3,72.5,29.82,SW,232,7.0,8.0,56,0.00,,,0.00,Wunderground v.1.15,2013-07-07 21:08:00,
2013-07-07 16:13:00,90.2,72.9,29.83,SSW,207,7.0,7.0,57,0.00,,,0.00,Wunderground v.1.15,2013-07-07 21:13:00,
2013-07-07 16:19:00,90.2,72.4,29.83,WSW,242,5.0,7.0,56,0.00,,,0.00,Wunderground v.1.15,2013-07-07 21:19:00,
2013-07-07 16:26:00,89.7,72.4,29.82,SW,228,6.0,7.0,57,0.00,,,0.00,Wunderground v.1.15,2013-07-07 21:26:00,
2013-07-07 16:31:00,89.7,71.9,29.83,WSW,246,5.0,5.0,56,0.00,,,0.00,Wunderground v.1.15,2013-07-07 21:31:00,
2013-07-07 16:37:00,89.9,72.6,29.82,WSW,250,5.0,6.0,57,0.00,,,0.00,Wunderground v.1.15,2013-07-07 21:37:00,
2013-07-07 16:43:00,90.2,72.4,29.82,WSW,251,6.0,7.0,56,0.00,,,0.00,Wunderground v.1.15,2013-07-07 21:43:00,
2013-07-07 16:49:00,90.2,72.9,29.82,WSW,242,5.0,7.0,57,0.00,,,0.00,Wunderground v.1.15,2013-07-07 21:49:00,
2013-07-07 16:54:00,90.2,73.4,29.82,West,267,5.0,7.0,58,0.00,,,0.00,Wunderground v.1.15,2013-07-07 21:54:00,
2013-07-07 17:00:00,90.4,73.0,29.82,WSW,258,0.0,8.0,56,0.00,,,0.00,weatherlink.com 1.10,2013-07-07 22:00:00,
2013-07-07 17:06:00,90.5,73.2,29.82,WSW,248,4.0,11.0,57,0.00,,,0.00,Wunderground v.1.15,2013-07-07 22:06:00,
2013-07-07 17:12:00,90.1,71.2,29.82,SSW,206,6.0,11.0,54,0.00,,,0.00,Wunderground v.1.15,2013-07-07 22:12:00,
2013-07-07 17:17:00,90.3,73.0,29.82,SSW,200,5.0,11.0,57,0.00,,,0.00,Wunderground v.1.15,2013-07-07 22:17:00,
2013-07-07 17:23:00,90.5,72.1,29.82,SW,219,4.0,11.0,55,0.00,,,0.00,Wunderground v.1.15,2013-07-07 22:23:00,
2013-07-07 17:29:00,90.5,72.7,29.82,SW,235,5.0,11.0,56,0.00,,,0.00,Wunderground v.1.15,2013-07-07 22:29:00,
2013-07-07 17:36:00,90.5,74.2,29.82,SW,234,4.0,11.0,59,0.00,,,0.00,Wunderground v.1.15,2013-07-07 22:36:00,
2013-07-07 17:42:00,90.0,74.7,29.82,WSW,241,3.0,11.0,61,0.00,,,0.00,Wunderground v.1.15,2013-07-07 22:42:00,
2013-07-07 17:47:00,89.8,74.6,29.82,WSW,242,2.0,11.0,61,0.00,,,0.00,Wunderground v.1.15,2013-07-07 22:47:00,
2013-07-07 17:53:00,90.1,74.3,29.82,WSW,250,3.0,11.0,60,0.00,,,0.00,Wunderground v.1.15,2013-07-07 22:53:00,
2013-07-07 17:58:00,90.2,73.9,29.82,WSW,246,3.0,11.0,59,0.00,,,0.00,Wunderground v.1.15,2013-07-07 22:58:00,
2013-07-07 18:03:00,90.2,74.9,29.82,SW,227,3.0,11.0,61,0.00,,,0.00,Wunderground v.1.15,2013-07-07 23:03:00,
2013-07-07 18:09:00,90.2,73.9,29.81,WSW,244,4.0,11.0,59,0.00,,,0.00,Wunderground v.1.15,2013-07-07 23:09:00,
2013-07-07 18:15:00,90.3,75.0,29.81,SSW,194,2.0,6.0,60,0.00,,,0.00,weatherlink.com 1.10,2013-07-07 23:15:00,
2013-07-07 18:21:00,90.4,74.1,29.81,SW,216,3.0,11.0,59,0.00,,,0.00,Wunderground v.1.15,2013-07-07 23:21:00,
2013-07-07 18:27:00,90.3,74.0,29.80,SSW,207,4.0,11.0,59,0.00,,,0.00,Wunderground v.1.15,2013-07-07 23:27:00,
2013-07-07 18:34:00,90.1,72.8,29.80,SW,229,3.0,11.0,57,0.00,,,0.00,Wunderground v.1.15,2013-07-07 23:34:00,
2013-07-07 18:40:00,89.6,72.9,29.80,SW,234,4.0,4.0,58,0.00,,,0.00,Wunderground v.1.15,2013-07-07 23:40:00,
2013-07-07 18:45:00,88.9,73.0,29.80,SW,232,1.0,5.0,59,0.00,,,0.00,weatherlink.com 1.10,2013-07-07 23:45:00,
2013-07-07 18:51:00,88.6,73.4,29.80,SW,232,2.0,11.0,61,0.00,,,0.00,Wunderground v.1.15,2013-07-07 23:51:00,
2013-07-07 18:57:00,89.1,74.4,29.80,SW,232,1.0,11.0,62,0.00,,,0.00,Wunderground v.1.15,2013-07-07 23:57:00,
2013-07-07 19:02:00,89.4,73.7,29.80,SW,232,0.0,3.0,60,0.00,,,0.00,Wunderground v.1.15,2013-07-08 00:02:00,
2013-07-07 19:08:00,89.4,73.7,29.80,South,180,1.0,3.0,60,0.00,,,0.00,Wunderground v.1.15,2013-07-08 00:08:00,
2013-07-07 19:14:00,89.2,74.0,29.80,South,180,1.0,1.0,61,0.00,,,0.00,Wunderground v.1.15,2013-07-08 00:14:00,
2013-07-07 19:19:00,89.0,75.2,29.80,South,180,0.0,1.0,64,0.00,,,0.00,Wunderground v.1.15,2013-07-08 00:19:00,
2013-07-07 19:25:00,89.1,74.4,29.80,South,180,0.0,0.0,62,0.00,,,0.00,Wunderground v.1.15,2013-07-08 00:25:00,
2013-07-07 19:31:00,89.0,73.0,29.80,South,180,0.0,0.0,59,0.00,,,0.00,weatherlink.com 1.10,2013-07-08 00:31:00,
2013-07-07 19:37:00,89.2,76.8,29.80,South,180,0.0,0.0,67,0.00,,,0.00,Wunderground v.1.15,2013-07-08 00:37:00,
2013-07-07 19:42:00,89.0,73.3,29.80,South,180,0.0,0.0,60,0.00,,,0.00,Wunderground v.1.15,2013-07-08 00:42:00,
2013-07-07 19:48:00,88.8,76.0,29.80,South,180,0.0,0.0,66,0.00,,,0.00,Wunderground v.1.15,2013-07-08 00:48:00,
2013-07-07 19:53:00,88.2,72.6,29.80,South,180,0.0,0.0,60,0.00,,,0.00,Wunderground v.1.15,2013-07-08 00:53:00,
2013-07-07 19:59:00,87.8,74.6,29.81,South,180,0.0,0.0,65,0.00,,,0.00,Wunderground v.1.15,2013-07-08 00:59:00,
2013-07-07 20:04:00,87.6,77.0,29.80,South,180,0.0,0.0,71,0.00,,,0.00,Wunderground v.1.15,2013-07-08 01:04:00,
2013-07-07 20:10:00,87.2,77.9,29.81,South,180,0.0,0.0,74,0.00,,,0.00,Wunderground v.1.15,2013-07-08 01:10:00,
2013-07-07 20:16:00,86.3,76.2,29.81,South,180,0.0,0.0,72,0.00,,,0.00,Wunderground v.1.15,2013-07-08 01:16:00,
2013-07-07 20:21:00,85.5,73.3,29.82,South,180,0.0,0.0,67,0.00,,,0.00,Wunderground v.1.15,2013-07-08 01:21:00,
2013-07-07 20:27:00,85.2,73.0,29.82,South,180,0.0,0.0,67,0.00,,,0.00,Wunderground v.1.15,2013-07-08 01:27:00,
2013-07-07 20:32:00,85.2,73.4,29.83,South,180,0.0,0.0,68,0.00,,,0.00,Wunderground v.1.15,2013-07-08 01:32:00,
2013-07-07 20:38:00,85.1,75.9,29.83,South,180,0.0,0.0,74,0.00,,,0.00,Wunderground v.1.15,2013-07-08 01:38:00,
2013-07-07 20:43:00,84.4,76.0,29.83,South,180,0.0,0.0,76,0.00,,,0.00,Wunderground v.1.15,2013-07-08 01:43:00,
2013-07-07 20:49:00,83.4,75.8,29.83,South,180,0.0,0.0,78,0.00,,,0.00,Wunderground v.1.15,2013-07-08 01:49:00,
2013-07-07 20:55:00,82.5,75.3,29.83,South,180,0.0,0.0,79,0.00,,,0.00,Wunderground v.1.15,2013-07-08 01:55:00,
2013-07-07 21:00:00,82.0,74.5,29.84,South,180,0.0,0.0,78,0.00,,,0.00,Wunderground v.1.15,2013-07-08 02:00:00,
2013-07-07 21:06:00,82.0,74.1,29.84,South,180,0.0,0.0,77,0.00,,,0.00,Wunderground v.1.15,2013-07-08 02:06:00,
2013-07-07 21:12:00,82.2,73.9,29.84,South,180,0.0,0.0,76,0.00,,,0.00,Wunderground v.1.15,2013-07-08 02:12:00,
2013-07-07 21:17:00,82.3,74.0,29.84,South,180,0.0,0.0,76,0.00,,,0.00,weatherlink.com 1.10,2013-07-08 02:17:00,
2013-07-07 21:23:00,82.4,74.5,29.84,South,180,0.0,0.0,77,0.00,,,0.00,Wunderground v.1.15,2013-07-08 02:23:00,
2013-07-07 21:29:00,82.0,73.7,29.84,South,180,0.0,0.0,76,0.00,,,0.00,Wunderground v.1.15,2013-07-08 02:29:00,
2013-07-07 21:34:00,81.7,73.4,29.84,South,180,0.0,0.0,76,0.00,,,0.00,Wunderground v.1.15,2013-07-08 02:34:00,
2013-07-07 21:40:00,81.4,73.9,29.85,South,180,0.0,0.0,78,0.00,,,0.00,Wunderground v.1.15,2013-07-08 02:40:00,
2013-07-07 21:46:00,80.9,74.0,29.85,South,180,0.0,0.0,80,0.00,,,0.00,weatherlink.com 1.10,2013-07-08 02:46:00,
2013-07-07 21:52:00,80.4,73.7,29.85,South,180,0.0,0.0,80,0.00,,,0.00,Wunderground v.1.15,2013-07-08 02:52:00,
2013-07-07 21:58:00,80.0,73.6,29.86,South,180,0.0,0.0,81,0.00,,,0.00,Wunderground v.1.15,2013-07-08 02:58:00,
2013-07-07 22:04:00,79.2,73.2,29.86,South,180,0.0,0.0,82,0.00,,,0.00,Wunderground v.1.15,2013-07-08 03:04:00,
2013-07-07 22:10:00,78.7,72.7,29.86,South,180,0.0,0.0,82,0.00,,,0.00,Wunderground v.1.15,2013-07-08 03:10:00,
2013-07-07 22:16:00,78.3,73.0,29.87,South,180,0.0,0.0,83,0.00,,,0.00,weatherlink.com 1.10,2013-07-08 03:16:00,
2013-07-07 22:22:00,78.0,72.4,29.88,South,180,0.0,0.0,83,0.00,,,0.00,Wunderground v.1.15,2013-07-08 03:22:00,
2013-07-07 22:28:00,77.8,72.2,29.88,South,180,0.0,0.0,83,0.00,,,0.00,Wunderground v.1.15,2013-07-08 03:28:00,
2013-07-07 22:33:00,77.3,71.7,29.88,South,180,0.0,0.0,83,0.00,,,0.00,Wunderground v.1.15,2013-07-08 03:33:00,
2013-07-07 22:39:00,77.0,71.8,29.88,South,180,0.0,0.0,84,0.00,,,0.00,Wunderground v.1.15,2013-07-08 03:39:00,
2013-07-07 22:45:00,76.9,72.0,29.88,South,180,0.0,0.0,85,0.00,,,0.00,Wunderground v.1.15,2013-07-08 03:45:00,
2013-07-07 22:51:00,76.6,71.7,29.88,South,180,0.0,0.0,85,0.00,,,0.00,Wunderground v.1.15,2013-07-08 03:51:00,
2013-07-07 22:56:00,76.6,71.7,29.88,South,180,0.0,0.0,85,0.00,,,0.00,Wunderground v.1.15,2013-07-08 03:56:00,
2013-07-07 23:01:00,76.5,71.7,29.88,South,180,0.0,1.0,85,0.00,,,0.00,Wunderground v.1.15,2013-07-08 04:01:00,
2013-07-07 23:02:00,76.5,72.0,29.88,South,180,1.0,2.0,85,0.00,,,0.00,weatherlink.com 1.10,2013-07-08 04:02:00,
2013-07-07 23:03:00,76.4,71.6,29.88,South,180,0.0,1.0,85,0.00,,,0.00,Wunderground v.1.15,2013-07-08 04:03:00,
2013-07-07 23:06:00,76.4,71.9,29.88,South,180,0.0,1.0,86,0.00,,,0.00,Wunderground v.1.15,2013-07-08 04:06:00,
2013-07-07 23:12:00,76.1,71.6,29.88,NNW,348,0.0,3.0,86,0.00,,,0.00,Wunderground v.1.15,2013-07-08 04:12:00,
2013-07-07 23:19:00,76.5,72.0,29.89,North,350,1.0,3.0,86,0.00,,,0.00,Wunderground v.1.15,2013-07-08 04:19:00,
2013-07-07 23:24:00,76.7,71.8,29.89,North,350,0.0,1.0,85,0.00,,,0.00,Wunderground v.1.15,2013-07-08 04:24:00,
2013-07-07 23:30:00,76.5,71.7,29.89,North,350,0.0,0.0,85,0.00,,,0.00,Wunderground v.1.15,2013-07-08 04:30:00,
2013-07-07 23:36:00,76.7,71.8,29.89,NNW,329,1.0,3.0,85,0.00,,,0.00,Wunderground v.1.15,2013-07-08 04:36:00,
2013-07-07 23:42:00,77.8,72.2,29.89,North,5,3.0,4.0,83,0.00,,,0.00,Wunderground v.1.15,2013-07-08 04:42:00,
2013-07-07 23:48:00,78.8,72.1,29.89,NNW,338,3.0,4.0,80,0.00,,,0.00,Wunderground v.1.15,2013-07-08 04:48:00,
2013-07-07 23:54:00,79.4,72.3,29.89,NNW,340,3.0,5.0,79,0.00,,,0.00,Wunderground v.1.15,2013-07-08 04:54:00,
2013-07-07 23:59:00,79.6,72.5,29.88,NNW,334,3.0,5.0,79,0.00,,,0.00,Wunderground v.1.15,2013-07-08 04:59:00,